[[{"header":{"parameterUnit":"m.s-1","parameterCategory":2,"la1":30.2991,"la2":30.254,"lo1":-89.0895,"lo2":-89.0444,"dy":0.0017,"dx":0.0017,"nx":28,"ny":28,"refTime":"2024-06-15T21:00:00:Z","depth":"0","parameterNumber":2,"parameterNumberName":"U-component_of_CURRENTS"},"data":[0,0,0,0,0,0,0,0,0,0,0,0,0,0,0,0,0,0,0,0,0,0,0,0,0,0,0,0,0,0,0,0,0,0,0,0,0,0,0,0,0,0,0,0,0,0,0,0,0,0,0,0,0,0,0,0,0,0,-0.2022,-0.2022,0,-0.2062,-0.2062,-0.2062,-0.2041,-0.204,-0.2039,-0.2038,-0.1995,-0.1995,-0.1995,0,0,0,0,0,0,0,0,0,0,0,0,0,-0.1939,-0.194,-0.2021,-0.2022,-0.2023,-0.2062,-0.2062,-0.2063,-0.2041,-0.204,-0.2038,-0.2037,-0.1995,-0.1995,-0.1995,0,0,0,0,0,0,0,0,0,0,0,0,0,-0.1975,-0.1941,-0.2021,-0.2018,-0.2018,-0.2062,-0.2062,-0.2063,-0.2041,-0.204,-0.2038,-0.2037,-0.1995,-0.1995,-0.1994,-0.2021,0,0,-0.1993,-0.1993,0,0,0,0,0,0,0,0,-0.1973,-0.1978,-0.2018,-0.2018,-0.2019,-0.2046,-0.2018,-0.2045,-0.2041,-0.2031,-0.2038,-0.2036,-0.2007,-0.2005,-0.2015,-0.2019,-0.2017,-0.1993,-0.1993,-0.1993,-0.1993,0,0,0,0,0,0,0,-0.197,-0.1976,-0.2036,-0.2019,-0.2019,-0.2019,-0.2022,-0.2023,-0.2023,-0.2031,-0.203,-0.2038,-0.2006,-0.2015,-0.2013,-0.2016,-0.1993,-0.1993,-0.1993,-0.1993,-0.2126,-0.213,0,0,0,0,0,0,-0.197,-0.1974,-0.2035,-0.2037,-0.1994,-0.2022,-0.2025,-0.2037,-0.2025,-0.2023,-0.2039,-0.2037,-0.2017,-0.2014,-0.2012,-0.2053,-0.1993,-0.1993,-0.1992,-0.2122,-0.2127,-0.2131,0,0,0,0,0,0,-0.1968,-0.1975,-0.2033,-0.2007,-0.2015,-0.2025,-0.2039,-0.2039,-0.2041,-0.2032,-0.2028,-0.204,-0.2015,-0.2012,-0.2038,-0.205,-0.1992,-0.1992,-0.2118,-0.2124,-0.2129,-0.2128,0,0,0,0,0,0,-0.1966,-0.1975,-0.1979,-0.2008,-0.2016,-0.2068,-0.204,-0.2041,-0.2049,-0.2046,-0.2031,-0.2027,-0.2014,-0.2039,-0.2038,-0.2049,-0.1992,-0.2113,-0.2121,-0.2127,-0.2123,-0.2133,-0.2141,0,0,0,0,0,-0.1963,-0.1976,-0.1979,-0.1986,-0.2024,-0.207,-0.2075,-0.2075,-0.205,-0.2067,-0.2068,-0.2027,-0.2084,-0.2041,-0.2039,-0.205,-0.211,-0.2118,-0.2127,-0.2119,-0.2131,-0.2141,0,0,0,0,0,0,-0.1936,-0.1977,-0.198,-0.2002,-0.2038,-0.2066,-0.2075,-0.2076,-0.209,-0.2079,-0.206,-0.2058,-0.2096,-0.2092,-0.2046,-0.2123,-0.2096,-0.2104,-0.2091,-0.2102,-0.2111,-0.2077,-0.1991,0,0,0,0,0,-0.1936,-0.1957,-0.1999,-0.2017,-0.2034,-0.2054,-0.2067,-0.2075,-0.2094,-0.2096,-0.2093,-0.2105,-0.2135,-0.2129,-0.2161,-0.218,-0.2156,-0.2199,-0.2208,-0.2215,-0.2195,-0.2179,-0.2181,-0.2159,-0.2159,-0.2159,0,0,-0.1928,-0.1954,-0.1963,-0.2013,-0.2032,-0.207,-0.2058,-0.2087,-0.2111,-0.209,-0.2115,-0.2137,-0.2157,-0.2197,-0.2212,-0.2182,-0.222,-0.2226,-0.223,-0.2206,-0.2187,-0.2188,-0.2189,-0.2165,-0.2164,-0.2163,0,0,-0.1931,-0.195,-0.1972,-0.2008,-0.2051,-0.2075,-0.2084,-0.2123,-0.2131,-0.2172,-0.2176,-0.2198,-0.2236,-0.2246,-0.2256,-0.2335,-0.2282,-0.2365,-0.2348,-0.2333,-0.2332,-0.233,-0.2323,-0.2321,-0.2348,-0.2348,-0.2348,0,-0.1918,-0.1953,-0.1986,-0.2023,-0.2048,-0.2077,-0.211,-0.2137,-0.218,-0.2187,-0.2184,-0.2246,-0.2254,-0.2284,-0.232,-0.2342,-0.2333,-0.2288,-0.2334,-0.2333,-0.2331,-0.2323,-0.2321,-0.2349,-0.2349,-0.2349,-0.2349,0,-0.1947,-0.1973,-0.1991,-0.2047,-0.2085,-0.2119,-0.2168,-0.2197,-0.2208,-0.2227,-0.2267,-0.2288,-0.2311,-0.2337,-0.2342,-0.2358,-0.2356,-0.2353,-0.2281,-0.2331,-0.2323,-0.232,-0.2351,-0.235,-0.235,-0.235,0,0,-0.1912,-0.1993,-0.1996,-0.2024,-0.2098,-0.2132,-0.218,-0.2227,-0.2245,-0.2277,-0.2291,-0.2339,-0.2332,-0.2347,-0.2359,-0.234,-0.2331,-0.2336,-0.2335,-0.2283,-0.2301,-0.2258,-0.225,-0.2326,-0.2325,-0.2324,-0.2304,0,-0.1917,-0.1976,-0.2022,-0.2077,-0.2111,-0.2162,-0.2209,-0.2255,-0.2285,-0.2313,-0.2316,-0.2348,-0.2343,-0.2352,-0.2333,-0.2348,-0.2322,-0.2337,-0.23,-0.2299,-0.2215,-0.2245,-0.218,-0.2151,-0.2301,-0.23,-0.23,0,-0.1923,-0.1964,-0.2013,-0.209,-0.211,-0.2151,-0.2214,-0.2259,-0.2307,-0.2327,-0.2335,-0.2352,-0.2351,-0.2337,-0.2318,-0.2328,-0.2308,-0.2301,-0.23,-0.2246,-0.2249,-0.2128,-0.214,-0.2134,-0.2295,-0.2295,-0.2296,0,-0.1873,-0.1954,-0.1986,-0.2015,-0.2111,-0.2137,-0.2183,-0.2249,-0.2286,-0.2324,-0.2349,-0.2348,-0.2358,-0.2324,-0.2314,-0.2315,-0.2285,-0.2285,-0.2221,-0.2219,-0.2147,-0.2139,-0.21,-0.2245,-0.2245,-0.2245,-0.2245,0,-0.1858,-0.1884,-0.1963,-0.1984,-0.2027,-0.2104,-0.2152,-0.2198,-0.2264,-0.2304,-0.2338,-0.236,-0.2353,-0.2346,-0.2314,-0.2259,-0.2279,-0.2209,-0.2202,-0.2153,-0.2146,-0.2124,-0.2144,-0.2244,-0.2244,-0.2245,-0.2245,0,-0.1798,-0.1851,-0.1891,-0.1978,-0.2004,-0.203,-0.2132,-0.2171,-0.2239,-0.229,-0.2303,-0.2366,-0.2352,-0.2339,-0.2303,-0.2263,-0.2178,-0.2185,-0.2133,-0.2119,-0.2037,-0.206,-0.1991,-0.1934,-0.2102,-0.2101,-0.21,0,-0.1772,-0.1784,-0.1862,-0.1887,-0.1924,-0.1982,-0.2031,-0.213,-0.218,-0.2287,-0.2306,-0.2332,-0.2326,-0.227,-0.2202,-0.2125,-0.2122,-0.2036,-0.2012,-0.201,-0.2032,-0.2037,-0.1994,-0.1935,-0.1933,-0.1931,-0.1929,0,-0.1711,-0.1733,-0.1767,-0.1813,-0.186,-0.1917,-0.1994,-0.2035,-0.2152,-0.2203,-0.2256,-0.2257,-0.2232,-0.2135,-0.206,-0.2004,-0.1992,-0.1992,-0.1998,-0.1896,-0.1889,-0.1838,-0.1989,-0.1912,-0.1914,-0.1915,-0.1916,-0.1916,-0.1651,-0.1654,-0.1691,-0.1727,-0.178,-0.1821,-0.1837,-0.1934,-0.1985,-0.2041,-0.2125,-0.2113,-0.2091,-0.1964,-0.1913,-0.1826,-0.1844,-0.1781,-0.1811,-0.1817,-0.1749,-0.1861,-0.1772,-0.1773,-0.1773,-0.1774,-0.1775,0,-0.1568,-0.1581,-0.1609,-0.1644,-0.1655,-0.1714,-0.1789,-0.1787,-0.1808,-0.1886,-0.1904,-0.1917,-0.1836,-0.1824,-0.1751,-0.1679,-0.163,-0.1651,-0.1649,-0.1613,-0.1713,-0.1691,-0.157,-0.157,-0.157,-0.157,-0.157,-0.157,-0.1525,-0.1509,-0.152,-0.1494,-0.1521,-0.1498,-0.151,-0.152,-0.1557,-0.1559,-0.1602,-0.1672,-0.1688,-0.181,-0.1727,-0.1648,-0.1602,-0.1554,-0.1561,-0.1661,-0.1676,-0.169,-0.1673,-0.155,-0.155,-0.1401,-0.14,-0.1399]},{"header":{"parameterUnit":"m.s-1","parameterCategory":2,"la1":30.2991,"la2":30.254,"lo1":-89.0895,"lo2":-89.0444,"dy":0.0017,"dx":0.0017,"nx":28,"ny":28,"refTime":"2024-06-15T21:00:00:Z","depth":"0","parameterNumber":3,"parameterNumberName":"V-component_of_CURRENTS"},"data":[0,0,0,0,0,0,0,0,0,0,0,0,0,0,0,0,0,0,0,0,0,0,0,0,0,0,0,0,0,0,0,0,0,0,0,0,0,0,0,0,0,0,0,0,0,0,0,0,0,0,0,0,0,0,0,0,0,0,-0.0074,-0.0073,0,0.0024,0.0025,0.0027,0.0096,0.0097,0.0097,0.0097,0.0215,0.0218,0.022,0,0,0,0,0,0,0,0,0,0,0,0,0,-0.0144,-0.0143,-0.0074,-0.0073,-0.0072,0.0024,0.0025,0.0027,0.0096,0.0097,0.0097,0.0097,0.0214,0.0217,0.0221,0,0,0,0,0,0,0,0,0,0,0,0,0,-0.0084,-0.0143,-0.0074,-0.0028,-0.0023,0.0024,0.0026,0.0027,0.0096,0.0097,0.0097,0.0098,0.0213,0.0217,0.0221,0.0237,0,0,0.0234,0.0236,0,0,0,0,0,0,0,0,-0.0088,-0.0082,-0.0036,-0.0031,-0.0025,0.0046,0.0044,0.0098,0.0096,0.0053,0.0097,0.0098,0.0158,0.0167,0.0187,0.0242,0.0247,0.0234,0.0237,0.0239,0.024,0,0,0,0,0,0,0,-0.0092,-0.0085,-0.0033,-0.0035,-0.0028,0.0008,0.0017,0.0055,0.0104,0.0057,0.0062,0.0069,0.0162,0.0183,0.0191,0.0249,0.0234,0.0238,0.0241,0.0242,0.0356,0.0357,0,0,0,0,0,0,-0.0112,-0.0089,-0.0036,-0.003,-0.0059,0.0008,0.0018,0.0025,0.0103,0.0115,0.0068,0.0072,0.0176,0.0186,0.0195,0.0215,0.0239,0.0243,0.0245,0.0356,0.0356,0.0357,0,0,0,0,0,0,-0.0114,-0.0109,-0.004,-0.0059,-0.0048,0.0008,0.0016,0.0026,0.0047,0.0111,0.0124,0.0077,0.0177,0.0189,0.0232,0.022,0.0244,0.0248,0.0355,0.0356,0.0357,0.0257,0,0,0,0,0,0,-0.0117,-0.011,-0.0113,-0.0061,-0.0048,-0.0023,0.0015,0.0028,0.0049,0.0055,0.0123,0.0135,0.0178,0.0226,0.0237,0.0227,0.0252,0.0354,0.0355,0.0356,0.026,0.0255,0.025,0,0,0,0,0,-0.012,-0.013,-0.0114,-0.0107,-0.0054,-0.0024,-0.0014,0.003,0.0049,0.0052,0.0105,0.0132,0.024,0.0229,0.0242,0.0233,0.0354,0.0355,0.0356,0.0262,0.0256,0.025,0,0,0,0,0,0,-0.0161,-0.0122,-0.0103,-0.0101,-0.007,-0.0013,-0.0008,0.0022,0.0067,0.0073,0.0136,0.0152,0.0186,0.0229,0.0216,0.0273,0.0302,0.0306,0.0227,0.0221,0.0216,0.0203,0.0255,0,0,0,0,0,-0.0174,-0.0171,-0.0126,-0.0126,-0.0114,-0.0063,-0.0046,-0.0017,0.0029,0.0049,0.0097,0.0153,0.0201,0.0224,0.0273,0.0299,0.0344,0.0306,0.03,0.0296,0.0296,0.0353,0.0352,0.0361,0.0361,0.036,0,0,-0.019,-0.0169,-0.0167,-0.0135,-0.0107,-0.0098,-0.0051,-0.0033,-0.0021,0.0054,0.0082,0.0135,0.0206,0.0239,0.0258,0.027,0.0317,0.0297,0.0292,0.0296,0.0354,0.0353,0.0352,0.0361,0.0361,0.0361,0,0,-0.0228,-0.0204,-0.0217,-0.0195,-0.0163,-0.013,-0.013,-0.0079,-0.0053,-0.002,0.0041,0.0088,0.0155,0.0205,0.0239,0.0238,0.0289,0.0253,0.0213,0.0266,0.0265,0.0265,0.0311,0.0316,0.0248,0.0248,0.0248,0,-0.0251,-0.0256,-0.0216,-0.0221,-0.0208,-0.0151,-0.0158,-0.0124,-0.0065,-0.0041,-0.0024,0.009,0.014,0.0194,0.0194,0.0223,0.0262,0.0221,0.0257,0.0258,0.0259,0.0306,0.0313,0.0243,0.0244,0.0244,0.0245,0,-0.0293,-0.0297,-0.0304,-0.029,-0.027,-0.0268,-0.0218,-0.0196,-0.0159,-0.0116,-0.0058,0.0017,0.0088,0.0107,0.0148,0.0187,0.0213,0.024,0.0262,0.0252,0.0303,0.0311,0.0237,0.0238,0.024,0.0241,0,0,-0.0341,-0.0337,-0.0338,-0.0346,-0.0305,-0.0296,-0.0278,-0.0238,-0.0219,-0.0162,-0.0127,-0.0049,0.0,0.0044,0.0104,0.0146,0.0182,0.0188,0.0193,0.0215,0.0297,0.034,0.0354,0.0211,0.0212,0.0213,0.0323,0,-0.0387,-0.0419,-0.0396,-0.0419,-0.0429,-0.0373,-0.0357,-0.0311,-0.0258,-0.021,-0.0127,-0.0071,-0.0026,0.0008,0.0057,0.0164,0.0202,0.015,0.032,0.0325,0.035,0.0365,0.0397,0.0499,0.0331,0.0333,0.0334,0,-0.0431,-0.0447,-0.0481,-0.0481,-0.0479,-0.0479,-0.0435,-0.0414,-0.0327,-0.0285,-0.0213,-0.0135,-0.0049,-0.0017,0.014,0.0105,0.0187,0.026,0.0266,0.035,0.0386,0.0488,0.0522,0.0657,0.0348,0.0347,0.0346,0,-0.048,-0.0504,-0.0536,-0.0534,-0.0522,-0.0522,-0.0506,-0.0435,-0.0411,-0.0325,-0.0291,-0.0175,-0.0103,0.0009,0.0168,0.0154,0.0341,0.0344,0.0459,0.0463,0.0547,0.0556,0.0718,0.044,0.044,0.044,0.044,0,-0.0532,-0.0558,-0.0565,-0.0583,-0.0615,-0.0576,-0.0581,-0.0544,-0.0475,-0.0437,-0.0333,-0.0265,-0.0093,0.0043,0.0162,0.0351,0.0343,0.046,0.0499,0.0513,0.0518,0.0686,0.0729,0.0444,0.0443,0.0442,0.0442,0,-0.058,-0.0584,-0.0627,-0.0636,-0.0643,-0.0661,-0.0647,-0.0639,-0.0567,-0.0511,-0.0484,-0.0319,-0.0133,0.0044,0.0256,0.0357,0.0608,0.0583,0.0585,0.0622,0.0833,0.0868,0.1062,0.1141,0.0716,0.0718,0.0719,0,-0.0608,-0.0635,-0.0677,-0.0709,-0.072,-0.0739,-0.0747,-0.0694,-0.0673,-0.0532,-0.0505,-0.0311,-0.0155,0.017,0.0394,0.0621,0.071,0.0767,0.0743,0.0862,0.093,0.0945,0.0998,0.0814,0.0816,0.0818,0.0819,0,-0.0664,-0.0676,-0.0712,-0.0779,-0.0811,-0.0841,-0.0842,-0.0839,-0.0748,-0.0671,-0.0521,-0.0381,-0.0042,0.0261,0.056,0.0688,0.0865,0.0809,0.0945,0.1033,0.1051,0.114,0.0715,0.0835,0.0834,0.0832,0.0832,0.0831,-0.0701,-0.0742,-0.0789,-0.0849,-0.0891,-0.0926,-0.0941,-0.0908,-0.0855,-0.0714,-0.0552,-0.0319,0.0138,0.0578,0.0742,0.1073,0.1015,0.1149,0.1184,0.1192,0.1264,0.0868,0.1022,0.1021,0.1021,0.1021,0.102,0,-0.0745,-0.0791,-0.0857,-0.0923,-0.0976,-0.0979,-0.099,-0.0971,-0.09,-0.0728,-0.0549,-0.0049,0.0388,0.0784,0.127,0.144,0.1467,0.1515,0.1552,0.159,0.1265,0.1266,0.1465,0.1465,0.1465,0.1465,0.1465,0.1464,-0.0771,-0.0842,-0.0877,-0.0977,-0.1023,-0.1068,-0.1072,-0.1013,-0.09,-0.0615,-0.0335,-0.0088,0.0499,0.1317,0.1765,0.1793,0.1934,0.1906,0.1986,0.1764,0.1732,0.1702,0.1716,0.2007,0.2008,0.2305,0.2308,0.231]}],[{"header":{"parameterUnit":"m.s-1","parameterCategory":2,"la1":30.2991,"la2":30.254,"lo1":-89.0895,"lo2":-89.0444,"dy":0.0017,"dx":0.0017,"nx":28,"ny":28,"refTime":"2024-06-15T21:00:00:Z","depth":"2","parameterNumber":2,"parameterNumberName":"U-component_of_CURRENTS"},"data":[0,0,0,0,0,0,0,0,0,0,0,0,0,0,0,0,0,0,0,0,0,0,0,0,0,0,0,0,0,0,0,0,0,0,0,0,0,0,0,0,0,0,0,0,0,0,0,0,0,0,0,0,0,0,0,0,0,0,-0.1845,-0.1846,0,-0.1881,-0.1881,-0.1882,-0.1864,-0.1863,-0.1863,-0.1862,-0.1822,-0.1821,-0.1821,0,0,0,0,0,0,0,0,0,0,0,0,0,-0.1772,-0.1773,-0.1845,-0.1846,-0.1846,-0.1881,-0.1881,-0.1882,-0.1864,-0.1863,-0.1862,-0.1862,-0.1822,-0.1821,-0.1821,0,0,0,0,0,0,0,0,0,0,0,0,0,-0.1804,-0.1773,-0.1845,-0.1843,-0.1843,-0.1881,-0.1881,-0.1882,-0.1865,-0.1863,-0.1862,-0.1861,-0.1822,-0.1821,-0.1821,-0.1841,0,0,-0.1819,-0.1819,0,0,0,0,0,0,0,0,-0.1802,-0.1806,-0.1843,-0.1843,-0.1844,-0.1868,-0.1841,-0.1865,-0.1865,-0.1855,-0.1862,-0.1861,-0.1832,-0.1831,-0.1839,-0.1839,-0.1837,-0.1819,-0.1819,-0.1819,-0.1818,0,0,0,0,0,0,0,-0.18,-0.1805,-0.1858,-0.1844,-0.1844,-0.1844,-0.1847,-0.1846,-0.1847,-0.1856,-0.1855,-0.1862,-0.1831,-0.1839,-0.1838,-0.1837,-0.1819,-0.1819,-0.1818,-0.1818,-0.1937,-0.1941,0,0,0,0,0,0,-0.18,-0.1803,-0.1857,-0.1859,-0.1821,-0.1846,-0.185,-0.186,-0.1849,-0.1847,-0.1863,-0.1861,-0.1841,-0.1838,-0.1836,-0.1876,-0.1819,-0.1818,-0.1818,-0.1934,-0.1938,-0.1942,0,0,0,0,0,0,-0.1798,-0.1804,-0.1855,-0.1832,-0.1839,-0.1849,-0.1861,-0.1862,-0.1866,-0.1855,-0.1851,-0.1866,-0.184,-0.1837,-0.1859,-0.1873,-0.1818,-0.1817,-0.193,-0.1935,-0.194,-0.1944,0,0,0,0,0,0,-0.1796,-0.1804,-0.1808,-0.1833,-0.1841,-0.1888,-0.1862,-0.1863,-0.1873,-0.1871,-0.1857,-0.1852,-0.1839,-0.186,-0.1859,-0.1871,-0.1817,-0.1925,-0.1932,-0.1938,-0.194,-0.1949,-0.1957,0,0,0,0,0,-0.1793,-0.1806,-0.1809,-0.1815,-0.1848,-0.1889,-0.1894,-0.1895,-0.1874,-0.189,-0.189,-0.1852,-0.1901,-0.1862,-0.1859,-0.1872,-0.1922,-0.193,-0.1938,-0.1936,-0.1947,-0.1957,0,0,0,0,0,0,-0.1771,-0.1807,-0.1809,-0.183,-0.1862,-0.1887,-0.1896,-0.1898,-0.191,-0.1901,-0.1882,-0.188,-0.1914,-0.1909,-0.1867,-0.1938,-0.1912,-0.1919,-0.1911,-0.1922,-0.193,-0.1901,-0.1817,0,0,0,0,0,-0.1772,-0.1791,-0.1828,-0.1844,-0.186,-0.1878,-0.1891,-0.1898,-0.1914,-0.1917,-0.1914,-0.1924,-0.1949,-0.1944,-0.197,-0.1988,-0.1966,-0.2008,-0.2017,-0.2023,-0.2007,-0.1992,-0.1995,-0.1968,-0.1967,-0.1967,0,0,-0.1765,-0.1788,-0.1797,-0.1841,-0.1859,-0.1893,-0.1882,-0.191,-0.1932,-0.1911,-0.1935,-0.1954,-0.1969,-0.2005,-0.2019,-0.1991,-0.203,-0.2033,-0.2038,-0.2017,-0.2,-0.2001,-0.2003,-0.1973,-0.1972,-0.1971,0,0,-0.177,-0.1787,-0.1808,-0.1841,-0.1881,-0.1901,-0.191,-0.1946,-0.1954,-0.1992,-0.1993,-0.2014,-0.2046,-0.2053,-0.2061,-0.2134,-0.2087,-0.2162,-0.2153,-0.214,-0.2139,-0.2139,-0.2132,-0.2131,-0.215,-0.215,-0.215,0,-0.176,-0.1791,-0.1821,-0.1856,-0.1878,-0.1905,-0.1935,-0.196,-0.1998,-0.2006,-0.2005,-0.206,-0.2064,-0.209,-0.2124,-0.2142,-0.2134,-0.2097,-0.2142,-0.2141,-0.214,-0.2133,-0.2132,-0.2151,-0.2151,-0.215,-0.215,0,-0.1787,-0.1813,-0.1829,-0.188,-0.1914,-0.1946,-0.1989,-0.2018,-0.2029,-0.2047,-0.2085,-0.2102,-0.2123,-0.2146,-0.2148,-0.2165,-0.2163,-0.2158,-0.2092,-0.2141,-0.2134,-0.2132,-0.2152,-0.2152,-0.2152,-0.2151,0,0,-0.1758,-0.1832,-0.1835,-0.1861,-0.1927,-0.1958,-0.2002,-0.2046,-0.2064,-0.2096,-0.2111,-0.2153,-0.2149,-0.2161,-0.2171,-0.2155,-0.215,-0.2151,-0.215,-0.2104,-0.2126,-0.2083,-0.2076,-0.2145,-0.2144,-0.2144,-0.2127,0,-0.1765,-0.182,-0.1861,-0.1912,-0.1942,-0.1988,-0.203,-0.2073,-0.2102,-0.2131,-0.2135,-0.2165,-0.216,-0.217,-0.2154,-0.2165,-0.2144,-0.2156,-0.2121,-0.212,-0.204,-0.2071,-0.1921,-0.1889,-0.2125,-0.2124,-0.2124,0,-0.1772,-0.1809,-0.1856,-0.1924,-0.1942,-0.198,-0.2038,-0.2079,-0.2126,-0.2147,-0.2158,-0.2175,-0.2176,-0.2163,-0.2146,-0.2156,-0.2137,-0.2128,-0.2127,-0.2074,-0.2071,-0.1881,-0.1876,-0.212,-0.212,-0.2121,-0.2121,0,-0.1728,-0.1802,-0.1833,-0.1859,-0.1945,-0.197,-0.2012,-0.2073,-0.2106,-0.2147,-0.2173,-0.2176,-0.2186,-0.2157,-0.2147,-0.2146,-0.2122,-0.2118,-0.2055,-0.2053,-0.1909,-0.1894,-0.2083,-0.2083,-0.2083,-0.2083,-0.2083,0,-0.1716,-0.174,-0.1813,-0.1833,-0.1872,-0.1942,-0.1987,-0.203,-0.2092,-0.2127,-0.2165,-0.2185,-0.2184,-0.2179,-0.2149,-0.2097,-0.2118,-0.2047,-0.2039,-0.1914,-0.1901,-0.2087,-0.2088,-0.2082,-0.2082,-0.2083,-0.2083,0,-0.1663,-0.1713,-0.1751,-0.183,-0.1853,-0.1876,-0.1967,-0.2002,-0.2069,-0.2115,-0.2129,-0.2191,-0.218,-0.2173,-0.2141,-0.2102,-0.2056,-0.2028,-0.189,-0.1864,-0.1997,-0.1999,-0.1951,-0.195,-0.1948,-0.1947,-0.1946,0,-0.1641,-0.1654,-0.1725,-0.1747,-0.1781,-0.1833,-0.1875,-0.1965,-0.2009,-0.2108,-0.2123,-0.2154,-0.2145,-0.2097,-0.2028,-0.1957,-0.2012,-0.1794,-0.1757,-0.1983,-0.198,-0.1985,-0.1989,-0.1581,-0.1577,-0.1574,-0.1571,0,-0.1586,-0.1608,-0.164,-0.1679,-0.172,-0.1766,-0.1832,-0.1863,-0.197,-0.2013,-0.2055,-0.2055,-0.2036,-0.19,-0.1835,-0.1771,-0.1794,-0.1726,-0.198,-0.1645,-0.1634,-0.1632,-0.1647,-0.1542,-0.1545,-0.1547,-0.1549,-0.155,-0.1531,-0.1534,-0.1568,-0.1597,-0.1641,-0.1665,-0.167,-0.1748,-0.1781,-0.1808,-0.1899,-0.1845,-0.1843,-0.1648,-0.1569,-0.1504,-0.1615,-0.154,-0.1549,-0.1562,-0.153,-0.1517,-0.1398,-0.14,-0.1402,-0.1403,-0.1405,0,-0.1452,-0.1464,-0.1487,-0.1511,-0.1509,-0.1565,-0.1614,-0.1586,-0.1578,-0.1621,-0.1623,-0.1453,-0.1383,-0.1379,-0.1235,-0.1216,-0.1194,-0.1168,-0.1139,-0.1168,-0.1194,-0.1143,-0.0908,-0.0906,-0.0905,-0.0904,0,0,-0.141,-0.1391,-0.1399,-0.1355,-0.1375,-0.133,-0.1327,-0.1292,-0.1289,-0.1205,-0.1177,-0.1286,-0.133,-0.1114,-0.1071,-0.0968,-0.1053,-0.0918,-0.1315,-0.1308,-0.1332,-0.1405,-0.136,0,0,0,0,0]},{"header":{"parameterUnit":"m.s-1","parameterCategory":2,"la1":30.2991,"la2":30.254,"lo1":-89.0895,"lo2":-89.0444,"dy":0.0017,"dx":0.0017,"nx":28,"ny":28,"refTime":"2024-06-15T21:00:00:Z","depth":"2","parameterNumber":3,"parameterNumberName":"V-component_of_CURRENTS"},"data":[0,0,0,0,0,0,0,0,0,0,0,0,0,0,0,0,0,0,0,0,0,0,0,0,0,0,0,0,0,0,0,0,0,0,0,0,0,0,0,0,0,0,0,0,0,0,0,0,0,0,0,0,0,0,0,0,0,0,-0.0106,-0.0105,0,-0.0013,-0.0012,-0.0011,0.0057,0.0057,0.0057,0.0058,0.0167,0.017,0.0172,0,0,0,0,0,0,0,0,0,0,0,0,0,-0.017,-0.017,-0.0106,-0.0105,-0.0104,-0.0013,-0.0012,-0.001,0.0056,0.0057,0.0057,0.0058,0.0166,0.0169,0.0172,0,0,0,0,0,0,0,0,0,0,0,0,0,-0.0114,-0.0169,-0.0106,-0.0061,-0.0057,-0.0014,-0.0012,-0.001,0.0056,0.0057,0.0057,0.0058,0.0165,0.0169,0.0173,0.0186,0,0,0.0185,0.0186,0,0,0,0,0,0,0,0,-0.0118,-0.0112,-0.0069,-0.0064,-0.0059,0.0009,0.0006,0.0056,0.0056,0.0016,0.0058,0.0058,0.0114,0.0122,0.0141,0.0191,0.0196,0.0185,0.0187,0.0189,0.019,0,0,0,0,0,0,0,-0.0122,-0.0115,-0.0067,-0.0068,-0.0062,-0.0027,-0.0019,0.0016,0.0063,0.0019,0.0024,0.0031,0.0117,0.0137,0.0144,0.0197,0.0185,0.0188,0.0191,0.0192,0.0292,0.0292,0,0,0,0,0,0,-0.0141,-0.0119,-0.007,-0.0064,-0.009,-0.0027,-0.0017,-0.0012,0.0062,0.0073,0.003,0.0033,0.013,0.014,0.0148,0.0167,0.0189,0.0192,0.0195,0.0291,0.0292,0.0292,0,0,0,0,0,0,-0.0143,-0.0138,-0.0074,-0.0091,-0.0081,-0.0027,-0.0021,-0.001,0.001,0.007,0.0082,0.0039,0.0131,0.0143,0.0182,0.0172,0.0194,0.0198,0.0291,0.0291,0.0292,0.0206,0,0,0,0,0,0,-0.0145,-0.0139,-0.0142,-0.0093,-0.0081,-0.0058,-0.0021,-0.0009,0.0012,0.0017,0.0081,0.0092,0.0132,0.0176,0.0186,0.0178,0.0201,0.0291,0.0291,0.0292,0.0209,0.0204,0.0199,0,0,0,0,0,-0.0148,-0.0158,-0.0143,-0.0137,-0.0087,-0.0059,-0.0049,-0.0007,0.0011,0.0014,0.0064,0.009,0.0187,0.0179,0.0191,0.0184,0.029,0.0291,0.0292,0.0211,0.0205,0.02,0,0,0,0,0,0,-0.0188,-0.0151,-0.0133,-0.0132,-0.0102,-0.0048,-0.0044,-0.0014,0.0027,0.0033,0.0092,0.0107,0.0138,0.0176,0.0166,0.0217,0.0244,0.0247,0.0178,0.0173,0.0168,0.0157,0.0204,0,0,0,0,0,-0.02,-0.0198,-0.0156,-0.0156,-0.0145,-0.0096,-0.0079,-0.0051,-0.0009,0.001,0.0055,0.0107,0.015,0.0172,0.0216,0.024,0.0281,0.0246,0.0241,0.0237,0.0237,0.0293,0.0293,0.0295,0.0295,0.0295,0,0,-0.0216,-0.0196,-0.0195,-0.0164,-0.0138,-0.0129,-0.0084,-0.0067,-0.0055,0.0015,0.0041,0.009,0.0154,0.0185,0.0202,0.0214,0.0257,0.0238,0.0233,0.0237,0.0294,0.0293,0.0293,0.0295,0.0295,0.0295,0,0,-0.0253,-0.0231,-0.0243,-0.0221,-0.019,-0.0159,-0.0159,-0.011,-0.0085,-0.0054,0.0002,0.0046,0.0106,0.0154,0.0185,0.0183,0.023,0.0195,0.0161,0.0213,0.0213,0.0214,0.0254,0.0259,0.0192,0.0192,0.0192,0,-0.0275,-0.028,-0.0242,-0.0246,-0.0233,-0.0179,-0.0185,-0.0153,-0.0097,-0.0074,-0.0059,0.0046,0.0093,0.0145,0.0144,0.017,0.0206,0.017,0.0205,0.0207,0.0209,0.0251,0.0257,0.0188,0.0188,0.0189,0.0189,0,-0.0315,-0.0318,-0.0325,-0.031,-0.0291,-0.0289,-0.0241,-0.022,-0.0185,-0.0143,-0.009,-0.0019,0.0047,0.0065,0.0102,0.0142,0.0163,0.0189,0.0211,0.0203,0.0248,0.0256,0.0182,0.0184,0.0185,0.0186,0,0,-0.0363,-0.0356,-0.0358,-0.0364,-0.0324,-0.0316,-0.0297,-0.026,-0.0242,-0.0186,-0.0153,-0.0079,-0.0032,0.0008,0.0065,0.0109,0.0145,0.0146,0.0151,0.0172,0.0254,0.0287,0.0299,0.0175,0.0176,0.0177,0.0275,0,-0.0406,-0.0434,-0.0412,-0.0434,-0.0442,-0.0389,-0.0373,-0.0329,-0.0279,-0.0234,-0.0152,-0.01,-0.0055,-0.0024,0.0027,0.0125,0.0165,0.0116,0.0273,0.0277,0.0296,0.0309,0.0257,0.0343,0.0283,0.0285,0.0286,0,-0.0449,-0.0462,-0.0493,-0.0493,-0.0491,-0.0491,-0.045,-0.043,-0.0347,-0.0307,-0.0236,-0.0162,-0.0077,-0.0045,0.0106,0.0073,0.0152,0.0221,0.0227,0.0294,0.0326,0.0347,0.036,0.03,0.0299,0.0298,0.0297,0,-0.0497,-0.0518,-0.0547,-0.0545,-0.0532,-0.0533,-0.0519,-0.0451,-0.043,-0.0346,-0.0316,-0.0201,-0.0134,-0.0023,0.0128,0.0117,0.0293,0.03,0.0401,0.0404,0.0412,0.0413,0.0395,0.0395,0.0395,0.0394,0.0394,0,-0.0546,-0.0571,-0.0576,-0.0593,-0.0625,-0.0587,-0.0594,-0.0558,-0.0495,-0.0464,-0.0358,-0.0298,-0.0125,0.0003,0.0121,0.0296,0.0293,0.0402,0.0437,0.038,0.0378,0.0386,0.0383,0.0398,0.0397,0.0396,0.0396,0,-0.0594,-0.0596,-0.0637,-0.0645,-0.0652,-0.0671,-0.066,-0.0656,-0.0587,-0.0541,-0.0516,-0.0359,-0.0184,-0.0009,0.0195,0.0294,0.045,0.0508,0.0426,0.045,0.0521,0.0513,0.0623,0.0625,0.0627,0.0628,0.063,0,-0.0622,-0.0648,-0.0687,-0.0718,-0.073,-0.075,-0.076,-0.071,-0.0695,-0.0571,-0.0551,-0.0369,-0.0229,0.0082,0.0294,0.0512,0.0513,0.0581,0.0554,0.0524,0.0547,0.0537,0.0527,0.0525,0.0525,0.0525,0.0526,0,-0.0678,-0.0689,-0.0723,-0.0789,-0.0822,-0.0855,-0.086,-0.0863,-0.0783,-0.0719,-0.0592,-0.0467,-0.0153,0.0097,0.0386,0.0498,0.0542,0.0593,0.0601,0.0475,0.044,0.046,0.0452,0.0528,0.0527,0.0527,0.0527,0.0527,-0.0715,-0.0755,-0.0801,-0.086,-0.0904,-0.0944,-0.0963,-0.0942,-0.0904,-0.079,-0.0646,-0.0446,-0.0181,0.022,0.043,0.061,0.0608,0.0633,0.0628,0.0624,0.0596,0.0566,0.0671,0.0671,0.0672,0.0672,0.0673,0,-0.0761,-0.0805,-0.087,-0.0938,-0.0993,-0.0996,-0.1017,-0.1005,-0.0957,-0.0818,-0.0669,-0.0387,-0.0093,0.0175,0.0469,0.0652,0.062,0.0664,0.0586,0.0583,0.058,0.0546,0.061,0.0611,0.0611,0.0612,0,0,-0.0788,-0.0858,-0.0892,-0.0995,-0.1041,-0.1091,-0.1101,-0.1057,-0.0963,-0.0825,-0.067,-0.0441,-0.01,0.0096,0.0331,0.0483,0.0477,0.0482,0.0509,0.0385,0.038,0.0537,0.0479,0,0,0,0,0]}],[{"header":{"parameterUnit":"m.s-1","parameterCategory":2,"la1":30.2991,"la2":30.254,"lo1":-89.0895,"lo2":-89.0444,"dy":0.0017,"dx":0.0017,"nx":28,"ny":28,"refTime":"2024-06-15T21:00:00:Z","depth":"4","parameterNumber":2,"parameterNumberName":"U-component_of_CURRENTS"},"data":[0,0,0,0,0,0,0,0,0,0,0,0,0,0,0,0,0,0,0,0,0,0,0,0,0,0,0,0,0,0,0,0,0,0,0,0,0,0,0,0,0,0,0,0,0,0,0,0,0,0,0,0,0,0,0,0,0,0,-0.1302,-0.1303,0,-0.1357,-0.1358,-0.1359,-0.1386,-0.1386,-0.1386,-0.1386,-0.1404,-0.1405,-0.1405,0,0,0,0,0,0,0,0,0,0,0,0,0,-0.1227,-0.1228,-0.1302,-0.1303,-0.1304,-0.1357,-0.1358,-0.1359,-0.1386,-0.1386,-0.1386,-0.1386,-0.1404,-0.1405,-0.1405,0,0,0,0,0,0,0,0,0,0,0,0,0,-0.1268,-0.1228,-0.1302,-0.1324,-0.1327,-0.1357,-0.1358,-0.1359,-0.1386,-0.1386,-0.1386,-0.1386,-0.1404,-0.1405,-0.1405,-0.1407,0,0,-0.1407,-0.1407,0,0,0,0,0,0,0,0,-0.1265,-0.127,-0.132,-0.1323,-0.1326,-0.1366,-0.1338,-0.1373,-0.1386,-0.1362,-0.1386,-0.1386,-0.1388,-0.139,-0.14,-0.1408,-0.1408,-0.1407,-0.1408,-0.1408,-0.1408,0,0,0,0,0,0,0,-0.1262,-0.1268,-0.1323,-0.1321,-0.1324,-0.1334,-0.134,-0.1345,-0.1373,-0.1365,-0.1367,-0.1374,-0.139,-0.1399,-0.14,-0.1409,-0.1407,-0.1408,-0.1408,-0.1408,-0.1481,-0.1483,0,0,0,0,0,0,-0.1257,-0.1266,-0.1321,-0.1325,-0.1296,-0.1335,-0.1342,-0.1352,-0.1374,-0.1378,-0.1374,-0.1375,-0.1398,-0.14,-0.1401,-0.1462,-0.1408,-0.1408,-0.1409,-0.148,-0.1482,-0.1483,0,0,0,0,0,0,-0.1255,-0.1262,-0.1319,-0.1297,-0.1305,-0.1336,-0.1348,-0.1353,-0.1382,-0.1381,-0.1385,-0.1399,-0.1398,-0.14,-0.1437,-0.1461,-0.1409,-0.1409,-0.1478,-0.148,-0.1482,-0.1547,0,0,0,0,0,0,-0.1253,-0.1261,-0.1276,-0.1297,-0.1306,-0.1356,-0.1348,-0.1354,-0.1385,-0.1388,-0.1404,-0.1405,-0.1398,-0.1437,-0.1438,-0.146,-0.141,-0.1476,-0.1479,-0.1482,-0.1543,-0.1551,-0.1558,0,0,0,0,0,-0.125,-0.1268,-0.1277,-0.1284,-0.1323,-0.1357,-0.1363,-0.1385,-0.1386,-0.1409,-0.1426,-0.1405,-0.1456,-0.1439,-0.144,-0.1463,-0.1474,-0.1478,-0.1481,-0.1539,-0.1549,-0.1558,0,0,0,0,0,0,-0.1241,-0.1273,-0.1283,-0.1309,-0.134,-0.1362,-0.1385,-0.1397,-0.1428,-0.1434,-0.1429,-0.1433,-0.1476,-0.1462,-0.1444,-0.1494,-0.146,-0.1464,-0.1503,-0.1513,-0.152,-0.1505,-0.141,0,0,0,0,0,-0.1246,-0.1271,-0.13,-0.1324,-0.1341,-0.1366,-0.1385,-0.1403,-0.1427,-0.1442,-0.1457,-0.147,-0.1488,-0.1495,-0.1512,-0.1536,-0.1513,-0.1551,-0.1559,-0.1565,-0.1555,-0.155,-0.1556,-0.1495,-0.1495,-0.1495,0,0,-0.1248,-0.127,-0.1284,-0.1325,-0.1349,-0.1379,-0.1379,-0.1418,-0.1445,-0.1437,-0.1488,-0.1505,-0.1504,-0.1542,-0.1557,-0.1533,-0.1575,-0.157,-0.1575,-0.1561,-0.1554,-0.156,-0.1565,-0.1497,-0.1497,-0.1496,0,0,-0.1262,-0.1287,-0.1313,-0.1341,-0.1385,-0.1403,-0.1418,-0.1459,-0.1483,-0.153,-0.1535,-0.1565,-0.1594,-0.1599,-0.1602,-0.1658,-0.1623,-0.1669,-0.1686,-0.1683,-0.1687,-0.1691,-0.1681,-0.1683,-0.1663,-0.1663,-0.1663,0,-0.1265,-0.1298,-0.1326,-0.1358,-0.1382,-0.1415,-0.1445,-0.1476,-0.1527,-0.1545,-0.1555,-0.1609,-0.1615,-0.1642,-0.1668,-0.1674,-0.1665,-0.1651,-0.1691,-0.1694,-0.1697,-0.1685,-0.1686,-0.1667,-0.1666,-0.1666,-0.1666,0,-0.1292,-0.1326,-0.1345,-0.1394,-0.1426,-0.146,-0.1501,-0.1541,-0.1572,-0.1596,-0.165,-0.167,-0.1691,-0.1708,-0.1706,-0.1733,-0.172,-0.1709,-0.1664,-0.1706,-0.1692,-0.1692,-0.1672,-0.1671,-0.1669,-0.1669,0,0,-0.1271,-0.1348,-0.1357,-0.1385,-0.1447,-0.1473,-0.1526,-0.1574,-0.1605,-0.1657,-0.1691,-0.1733,-0.1744,-0.1747,-0.1755,-0.1755,-0.1777,-0.1743,-0.1741,-0.1725,-0.1769,-0.1664,-0.1654,-0.1777,-0.1777,-0.1777,-0.1756,0,-0.1282,-0.1342,-0.138,-0.1436,-0.1466,-0.1513,-0.1557,-0.1607,-0.165,-0.1696,-0.1717,-0.1758,-0.1758,-0.1778,-0.1781,-0.1784,-0.1779,-0.1783,-0.1736,-0.1734,-0.1629,-0.1651,-0.1778,-0.1756,-0.1756,-0.1756,-0.1756,0,-0.1288,-0.1328,-0.1386,-0.1455,-0.1473,-0.1515,-0.1582,-0.1625,-0.1688,-0.1723,-0.1759,-0.1783,-0.1806,-0.1798,-0.1799,-0.1806,-0.1789,-0.1781,-0.178,-0.1652,-0.1628,-0.1702,-0.1756,-0.1756,-0.1756,-0.1756,-0.1756,0,-0.1249,-0.1327,-0.1373,-0.1398,-0.1484,-0.152,-0.1563,-0.1633,-0.1669,-0.1737,-0.1769,-0.1801,-0.1821,-0.1811,-0.1803,-0.1806,-0.1792,-0.1788,-0.1673,-0.1666,-0.1738,-0.1734,-0.1772,-0.1772,-0.1772,-0.1772,-0.1772,0,-0.1231,-0.1269,-0.1363,-0.1388,-0.1438,-0.1504,-0.1562,-0.161,-0.1679,-0.1706,-0.1775,-0.1788,-0.1828,-0.1828,-0.1808,-0.1734,-0.179,-0.1668,-0.1649,-0.1769,-0.1769,-0.1739,-0.1735,-0.1772,-0.1772,-0.1772,-0.1772,0,-0.1179,-0.1244,-0.1298,-0.1393,-0.1423,-0.1456,-0.1549,-0.1581,-0.1661,-0.1697,-0.1719,-0.1786,-0.1778,-0.1798,-0.1782,-0.1726,-0.1677,-0.1635,-0.1762,-0.1753,-0.1553,-0.1554,-0.1498,-0.1494,-0.1491,-0.1488,-0.1485,0,-0.1154,-0.1181,-0.1285,-0.1314,-0.136,-0.1424,-0.1461,-0.1553,-0.158,-0.1668,-0.1665,-0.1706,-0.1731,-0.1619,-0.1657,-0.1607,-0.1587,-0.1558,-0.1551,-0.1535,-0.1524,-0.1529,-0.1534,-0.148,-0.1479,-0.1478,-0.1477,0,-0.1098,-0.115,-0.1194,-0.1248,-0.1296,-0.1337,-0.1394,-0.14,-0.1487,-0.1591,-0.1557,-0.1547,-0.1541,-0.1526,-0.1506,-0.147,-0.1576,-0.1522,-0.1529,-0.1522,-0.1513,-0.1506,-0.1515,-0.1466,-0.1467,-0.1468,-0.1469,0,-0.1053,-0.1067,-0.1126,-0.1159,-0.1211,-0.1205,-0.1259,-0.1276,-0.1308,-0.1411,-0.1392,-0.1436,-0.1507,-0.1453,-0.1428,-0.1394,-0.1371,-0.1324,-0.1341,-0.1354,-0.1319,-0.1287,-0.1142,0,0,0,0,0,-0.0995,-0.0997,-0.1026,-0.1048,-0.1091,-0.111,-0.1187,-0.1244,-0.1337,-0.127,-0.1324,-0.1305,-0.1276,-0.1306,-0.1238,-0.1368,-0.138,-0.1285,-0.1336,-0.1401,-0.1414,-0.1387,0,0,0,0,0,0,-0.0955,-0.0983,-0.0987,-0.0932,-0.0923,-0.0946,-0.0982,-0.1054,-0.1028,-0.1136,-0.1123,-0.122,-0.121,-0.1282,-0.1205,-0.1216,-0.1219,-0.133,-0.1326,-0.1393,-0.1405,-0.1416,-0.1393,0,0,0,0,0]},{"header":{"parameterUnit":"m.s-1","parameterCategory":2,"la1":30.2991,"la2":30.254,"lo1":-89.0895,"lo2":-89.0444,"dy":0.0017,"dx":0.0017,"nx":28,"ny":28,"refTime":"2024-06-15T21:00:00:Z","depth":"4","parameterNumber":3,"parameterNumberName":"V-component_of_CURRENTS"},"data":[0,0,0,0,0,0,0,0,0,0,0,0,0,0,0,0,0,0,0,0,0,0,0,0,0,0,0,0,0,0,0,0,0,0,0,0,0,0,0,0,0,0,0,0,0,0,0,0,0,0,0,0,0,0,0,0,0,0,-0.0095,-0.0094,0,-0.0029,-0.0029,-0.0028,0.0024,0.0024,0.0025,0.0025,0.011,0.0112,0.0114,0,0,0,0,0,0,0,0,0,0,0,0,0,-0.0133,-0.0133,-0.0095,-0.0094,-0.0093,-0.003,-0.0029,-0.0027,0.0024,0.0024,0.0025,0.0025,0.0109,0.0112,0.0114,0,0,0,0,0,0,0,0,0,0,0,0,0,-0.0096,-0.0133,-0.0095,-0.0062,-0.0058,-0.003,-0.0028,-0.0027,0.0024,0.0024,0.0025,0.0025,0.0109,0.0112,0.0114,0.0122,0,0,0.0123,0.0125,0,0,0,0,0,0,0,0,-0.0098,-0.0094,-0.0067,-0.0064,-0.006,-0.0012,-0.0011,0.0023,0.0024,-0.0005,0.0025,0.0026,0.0069,0.0076,0.0089,0.0126,0.013,0.0124,0.0125,0.0127,0.0127,0,0,0,0,0,0,0,-0.01,-0.0096,-0.0067,-0.0067,-0.0062,-0.0036,-0.003,-0.0004,0.003,-0.0003,0.0001,0.0005,0.0072,0.0086,0.0092,0.0131,0.0124,0.0126,0.0128,0.0129,0.0182,0.0182,0,0,0,0,0,0,-0.0115,-0.0099,-0.0069,-0.0065,-0.008,-0.0036,-0.0029,-0.0026,0.003,0.0038,0.0004,0.0007,0.0081,0.0088,0.0095,0.0111,0.0127,0.0129,0.0131,0.0182,0.0182,0.0182,0,0,0,0,0,0,-0.0116,-0.0113,-0.0072,-0.0082,-0.0075,-0.0036,-0.0033,-0.0025,-0.0011,0.0034,0.0044,0.001,0.0082,0.0091,0.012,0.0114,0.0131,0.0133,0.0183,0.0182,0.0182,0.014,0,0,0,0,0,0,-0.0118,-0.0114,-0.0119,-0.0083,-0.0075,-0.0061,-0.0033,-0.0024,-0.001,-0.0006,0.0042,0.0051,0.0083,0.0115,0.0123,0.0119,0.0136,0.0183,0.0183,0.0182,0.0142,0.0138,0.0135,0,0,0,0,0,-0.0119,-0.013,-0.0119,-0.0116,-0.0082,-0.0062,-0.0056,-0.0024,-0.0011,-0.0009,0.0028,0.005,0.0116,0.0117,0.0126,0.0123,0.0184,0.0183,0.0182,0.0144,0.0139,0.0135,0,0,0,0,0,0,-0.0149,-0.0125,-0.0112,-0.0115,-0.0093,-0.0054,-0.0053,-0.003,0.0,0.0004,0.005,0.0061,0.0083,0.0107,0.0107,0.0135,0.0151,0.0152,0.0119,0.0115,0.0111,0.0105,0.0138,0,0,0,0,0,-0.016,-0.0161,-0.0131,-0.0134,-0.0127,-0.0091,-0.008,-0.0059,-0.0027,-0.0013,0.0021,0.0056,0.0086,0.0103,0.0131,0.0148,0.0179,0.015,0.0146,0.0143,0.0143,0.0193,0.0194,0.0179,0.0179,0.0179,0,0,-0.0173,-0.016,-0.0161,-0.0141,-0.0122,-0.0116,-0.0082,-0.0071,-0.0062,-0.0009,0.0011,0.0044,0.0087,0.0108,0.0119,0.0129,0.016,0.0142,0.014,0.0141,0.0192,0.0194,0.0195,0.0178,0.0179,0.0179,0,0,-0.0203,-0.019,-0.02,-0.0184,-0.0163,-0.014,-0.014,-0.0105,-0.0086,-0.0064,-0.0023,0.0011,0.0049,0.0087,0.0109,0.0103,0.0139,0.0103,0.0085,0.0133,0.0135,0.0137,0.0164,0.0169,0.0104,0.0104,0.0104,0,-0.0221,-0.0227,-0.0201,-0.0203,-0.0195,-0.0155,-0.016,-0.0136,-0.0094,-0.0078,-0.0067,0.0006,0.0041,0.0083,0.0081,0.0096,0.0121,0.0098,0.0129,0.0132,0.0135,0.0162,0.0168,0.0101,0.0102,0.0102,0.0102,0,-0.025,-0.0255,-0.0261,-0.025,-0.0238,-0.0237,-0.0202,-0.0187,-0.0163,-0.0131,-0.0091,-0.0035,0.001,0.0024,0.0052,0.0087,0.0096,0.0118,0.014,0.0134,0.0163,0.017,0.0098,0.0099,0.01,0.01,0,0,-0.029,-0.0284,-0.0287,-0.0293,-0.0263,-0.026,-0.0245,-0.0218,-0.0208,-0.0161,-0.0139,-0.0078,-0.0041,-0.0014,0.003,0.0073,0.0112,0.0098,0.0102,0.0125,0.0203,0.0175,0.018,0.014,0.0142,0.0142,0.021,0,-0.0322,-0.0343,-0.0327,-0.0347,-0.0352,-0.0315,-0.0306,-0.0273,-0.0238,-0.0206,-0.0136,-0.01,-0.0057,-0.0036,0.0016,0.0091,0.013,0.0091,0.0206,0.0209,0.0185,0.0187,0.0146,0.0216,0.0218,0.0219,0.022,0,-0.0353,-0.0363,-0.0389,-0.0394,-0.0394,-0.0399,-0.0376,-0.0362,-0.03,-0.0271,-0.0211,-0.0154,-0.0078,-0.0047,0.0083,0.0055,0.0121,0.0178,0.0183,0.0177,0.0194,0.0228,0.0233,0.0232,0.0231,0.023,0.0229,0,-0.0389,-0.0408,-0.0434,-0.0433,-0.0429,-0.0437,-0.043,-0.0383,-0.0373,-0.0309,-0.0291,-0.0187,-0.0139,-0.0034,0.0087,0.0087,0.0223,0.0242,0.0277,0.0276,0.03,0.0298,0.0327,0.0327,0.0327,0.0327,0.0326,0,-0.0421,-0.0446,-0.0459,-0.0473,-0.051,-0.0483,-0.0503,-0.0477,-0.0436,-0.0424,-0.0329,-0.0294,-0.0133,-0.0033,0.0075,0.0194,0.0219,0.0273,0.0295,0.0278,0.0272,0.0305,0.0301,0.0329,0.0329,0.0328,0.0328,0,-0.0453,-0.046,-0.0499,-0.0517,-0.0529,-0.0553,-0.0565,-0.057,-0.0524,-0.0504,-0.0486,-0.0366,-0.0234,-0.008,0.0094,0.0168,0.0291,0.0325,0.0282,0.03,0.0312,0.0306,0.037,0.0369,0.0369,0.0369,0.0369,0,-0.0469,-0.0492,-0.0541,-0.0576,-0.0593,-0.0625,-0.0647,-0.062,-0.0618,-0.0549,-0.054,-0.0414,-0.032,-0.0099,0.0063,0.0263,0.029,0.0341,0.034,0.0303,0.0319,0.0313,0.0307,0.0368,0.0368,0.0368,0.0368,0,-0.0504,-0.0526,-0.0559,-0.0628,-0.0672,-0.0715,-0.0738,-0.0744,-0.0702,-0.0666,-0.0581,-0.0451,-0.0306,-0.0116,0.0039,0.0183,0.0304,0.0339,0.0341,0.034,0.0302,0.0316,0.0311,0.0367,0.0367,0.0367,0.0367,0,-0.0532,-0.0567,-0.0615,-0.0674,-0.0735,-0.0781,-0.0791,-0.0778,-0.0765,-0.0678,-0.0653,-0.0479,-0.0368,-0.0159,-0.0015,0.0125,0.0159,0.0193,0.0203,0.0206,0.0139,0.0067,0.0077,0,0,0,0,0,-0.0552,-0.0595,-0.0657,-0.072,-0.078,-0.081,-0.0839,-0.0833,-0.0795,-0.0747,-0.0695,-0.0556,-0.0328,-0.0222,-0.0088,-0.0025,0.0177,0.0133,0.0218,0.0361,0.0362,0.031,0,0,0,0,0,0,-0.0569,-0.063,-0.0659,-0.0741,-0.0789,-0.0849,-0.0869,-0.0846,-0.0807,-0.075,-0.0626,-0.0541,-0.0315,-0.0402,-0.0089,-0.0045,0.0021,0.0252,0.0254,0.036,0.0361,0.0362,0.0309,0,0,0,0,0]}]]